GOKTURK 2

Last updated on Fri Feb 06 2026 00:02:32 GMT+0000 (Coordinated Universal Time)

1 39030U 12073A 26036.72070127 .00000959 00000+0 14832-3 0 9994 2 39030 97.6881 240.6714 0002004 71.6360 288.5068 14.75388654705122
UTC large
Height (km)
Speed (km/s)
/
Latitude / Longitude
Inclination (degrees)
Orbital Period (minutes)
Azimuth
Elevation
Range (km)
Doppler Factor

Next 0 passes for location: London (51.5072 / 0.1276)

Sorry there are no passes over London.